[[{"header":{"parameterUnit":"m.s-1","parameterCategory":1,"la1":30.2991,"la2":30.254,"lo1":-89.0895,"lo2":-89.0444,"dy":0.0017,"dx":0.0017,"nx":28,"ny":28,"refTime":"2024-06-14T03:00:00:Z","depth":0,"parameterNumber":2,"parameterNumberName":"U-component_of_WINDS"},"data":[0,0,0,0,0,0,0,0,0,0,0,0,0,0,0,0,0,0,0,0,0,0,0,0,0,0,0,0,0,0,0,0,0,0,0,0,0,0,0,0,0,0,0,0,0,0,0,0,0,0,0,0,0,0,0,0,0,0,-1.0581,-1.0581,0,-1.0544,-1.0544,-1.0543,-1.0455,-1.0453,-1.0452,-1.045,-1.0414,-1.0415,-1.0416,0,0,0,0,0,0,0,0,0,0,0,0,0,-1.0577,-1.0577,-1.0581,-1.0581,-1.058,-1.0544,-1.0544,-1.0543,-1.0456,-1.0453,-1.0451,-1.0449,-1.0414,-1.0415,-1.0416,0,0,0,0,0,0,0,0,0,0,0,0,0,-1.0563,-1.0578,-1.0581,-1.0532,-1.0527,-1.0544,-1.0544,-1.0543,-1.0456,-1.0453,-1.0451,-1.0448,-1.0414,-1.0415,-1.0416,-1.0478,0,0,-1.0419,-1.042,0,0,0,0,0,0,0,0,-1.0564,-1.0564,-1.054,-1.0535,-1.053,-1.0501,-1.0529,-1.0521,-1.0457,-1.0483,-1.045,-1.0447,-1.0446,-1.0444,-1.0443,-1.0476,-1.0475,-1.0419,-1.042,-1.0421,-1.0421,0,0,0,0,0,0,0,-1.0565,-1.0565,-1.0566,-1.0539,-1.0534,-1.0512,-1.0507,-1.0527,-1.048,-1.0481,-1.0474,-1.0471,-1.0442,-1.0442,-1.0442,-1.0474,-1.0419,-1.042,-1.0421,-1.0422,-1.0556,-1.0559,0,0,0,0,0,0,-1.0573,-1.0566,-1.0568,-1.0565,-1.0541,-1.0515,-1.0509,-1.0513,-1.048,-1.0472,-1.0473,-1.0467,-1.0442,-1.044,-1.044,-1.051,-1.0421,-1.0422,-1.0422,-1.0553,-1.0557,-1.056,0,0,0,0,0,0,-1.0573,-1.0574,-1.0569,-1.0564,-1.0561,-1.0517,-1.0523,-1.0514,-1.0514,-1.0474,-1.0466,-1.0482,-1.0439,-1.0438,-1.0469,-1.0508,-1.0422,-1.0423,-1.055,-1.0554,-1.0558,-1.0652,0,0,0,0,0,0,-1.0574,-1.0575,-1.0598,-1.0565,-1.0562,-1.0599,-1.0526,-1.0515,-1.0516,-1.0507,-1.048,-1.0473,-1.0437,-1.0468,-1.047,-1.0508,-1.0424,-1.0546,-1.0552,-1.0557,-1.0646,-1.0659,-1.0671,0,0,0,0,0,-1.0574,-1.0626,-1.0599,-1.06,-1.059,-1.0601,-1.0599,-1.0557,-1.0519,-1.0542,-1.0517,-1.0473,-1.0503,-1.0472,-1.0474,-1.0512,-1.0544,-1.055,-1.0556,-1.064,-1.0657,-1.0671,0,0,0,0,0,0,-1.0666,-1.0621,-1.0591,-1.0634,-1.0622,-1.0586,-1.0614,-1.0576,-1.0575,-1.0567,-1.0515,-1.0509,-1.0547,-1.0532,-1.0498,-1.057,-1.0516,-1.0523,-1.0579,-1.0595,-1.0607,-1.061,-1.0425,0,0,0,0,0,-1.0691,-1.0703,-1.0664,-1.0706,-1.0701,-1.0659,-1.0662,-1.063,-1.0616,-1.061,-1.0587,-1.0575,-1.0581,-1.0587,-1.0591,-1.0642,-1.0635,-1.067,-1.0683,-1.0693,-1.0701,-1.0727,-1.0742,-1.0581,-1.0581,-1.0581,0,0,-1.0744,-1.0721,-1.0732,-1.0724,-1.071,-1.0725,-1.0655,-1.0673,-1.0683,-1.0613,-1.0641,-1.0623,-1.0606,-1.0648,-1.0665,-1.0636,-1.0743,-1.0702,-1.0711,-1.0712,-1.0735,-1.075,-1.0764,-1.0586,-1.0585,-1.0584,0,0,-1.0847,-1.0831,-1.0864,-1.0851,-1.0832,-1.0803,-1.0811,-1.0781,-1.0766,-1.0792,-1.074,-1.0751,-1.0763,-1.0753,-1.075,-1.0848,-1.0808,-1.0851,-1.0918,-1.0944,-1.0956,-1.0967,-1.1003,-1.1016,-1.0858,-1.0858,-1.0858,0,-1.0915,-1.0934,-1.0886,-1.0907,-1.0905,-1.0841,-1.0874,-1.0865,-1.0848,-1.0848,-1.0816,-1.083,-1.0814,-1.0852,-1.0876,-1.0875,-1.0883,-1.0854,-1.0958,-1.0969,-1.0978,-1.1011,-1.1025,-1.0863,-1.0863,-1.0862,-1.0862,0,-1.1018,-1.1032,-1.1061,-1.1046,-1.1047,-1.1074,-1.103,-1.1037,-1.1005,-1.098,-1.1007,-1.0986,-1.0984,-1.099,-1.0959,-1.1024,-1.1007,-1.0968,-1.0912,-1.1,-1.103,-1.1042,-1.0871,-1.0869,-1.0867,-1.0866,0,0,-1.118,-1.1136,-1.1148,-1.114,-1.1113,-1.1123,-1.1147,-1.1144,-1.1151,-1.1141,-1.116,-1.1171,-1.1135,-1.1131,-1.1098,-1.1121,-1.12,-1.1078,-1.1077,-1.1102,-1.127,-1.13,-1.1315,-1.1173,-1.1175,-1.1177,-1.1271,0,-1.1277,-1.1316,-1.1272,-1.132,-1.1332,-1.1271,-1.1292,-1.1278,-1.1254,-1.1261,-1.1236,-1.1244,-1.1195,-1.1192,-1.1212,-1.1186,-1.1233,-1.1178,-1.1191,-1.1192,-1.1198,-1.1331,-1.1363,-1.1453,-1.1283,-1.1284,-1.1286,0,-1.1396,-1.1391,-1.144,-1.1408,-1.1412,-1.1432,-1.1425,-1.1432,-1.1415,-1.1396,-1.1392,-1.1352,-1.1373,-1.1319,-1.1348,-1.1312,-1.1314,-1.1302,-1.1304,-1.1305,-1.1245,-1.1335,-1.1481,-1.1495,-1.1304,-1.1302,-1.1301,0,-1.151,-1.1515,-1.1544,-1.1539,-1.1504,-1.1519,-1.1505,-1.1484,-1.1485,-1.148,-1.148,-1.1477,-1.1476,-1.1475,-1.1435,-1.1399,-1.147,-1.1412,-1.1455,-1.1457,-1.1474,-1.1474,-1.1623,-1.1474,-1.1474,-1.1474,-1.1474,0,-1.1623,-1.1655,-1.1594,-1.1613,-1.1647,-1.1597,-1.1632,-1.1612,-1.1594,-1.1608,-1.1555,-1.1569,-1.1515,-1.1523,-1.1492,-1.1521,-1.1521,-1.1507,-1.1498,-1.1512,-1.1514,-1.1513,-1.1506,-1.1477,-1.1477,-1.1476,-1.1475,0,-1.1756,-1.1717,-1.1745,-1.1708,-1.17,-1.1727,-1.1696,-1.1711,-1.1684,-1.1702,-1.1703,-1.1661,-1.1667,-1.1627,-1.1627,-1.1606,-1.165,-1.1631,-1.1656,-1.1651,-1.1697,-1.1693,-1.1851,-1.187,-1.1709,-1.1711,-1.1712,0,-1.1832,-1.1855,-1.1821,-1.1825,-1.1814,-1.1822,-1.1822,-1.1774,-1.1776,-1.1758,-1.1776,-1.1778,-1.1777,-1.1791,-1.176,-1.176,-1.174,-1.1795,-1.174,-1.1753,-1.1741,-1.1741,-1.1743,-1.1808,-1.181,-1.1811,-1.1812,0,-1.197,-1.1949,-1.1951,-1.1946,-1.1947,-1.1941,-1.1932,-1.1939,-1.1886,-1.1892,-1.1897,-1.1897,-1.1896,-1.1899,-1.1892,-1.1877,-1.1837,-1.183,-1.184,-1.1855,-1.1869,-1.1862,-1.1689,-1.1827,-1.1825,-1.1824,-1.1824,-1.1823,-1.2076,-1.2094,-1.2072,-1.2076,-1.2064,-1.2056,-1.2068,-1.2042,-1.2046,-1.2041,-1.2012,-1.2023,-1.2004,-1.199,-1.198,-1.1988,-1.1962,-1.1977,-1.198,-1.1985,-1.1993,-1.1867,-1.1987,-1.1986,-1.1986,-1.1985,-1.1985,0,-1.2212,-1.2195,-1.2199,-1.2186,-1.219,-1.2149,-1.2136,-1.2142,-1.2152,-1.2138,-1.2138,-1.2144,-1.2146,-1.2116,-1.2114,-1.2126,-1.2108,-1.2128,-1.2127,-1.2124,-1.2017,-1.2008,-1.2143,-1.2143,-1.2143,-1.2143,-1.2143,-1.2143,-1.2283,-1.231,-1.2287,-1.2308,-1.229,-1.23,-1.2296,-1.2288,-1.2276,-1.2286,-1.2287,-1.2267,-1.2246,-1.2242,-1.2242,-1.2233,-1.2235,-1.2262,-1.2246,-1.2147,-1.2132,-1.2117,-1.2109,-1.2263,-1.2263,-1.2353,-1.2354,-1.2354]},{"header":{"parameterUnit":"m.s-1","parameterCategory":1,"la1":30.2991,"la2":30.254,"lo1":-89.0895,"lo2":-89.0444,"dy":0.0017,"dx":0.0017,"nx":28,"ny":28,"refTime":"2024-06-14T03:00:00:Z","depth":0,"parameterNumber":3,"parameterNumberName":"V-component_of_WINDS"},"data":[0,0,0,0,0,0,0,0,0,0,0,0,0,0,0,0,0,0,0,0,0,0,0,0,0,0,0,0,0,0,0,0,0,0,0,0,0,0,0,0,0,0,0,0,0,0,0,0,0,0,0,0,0,0,0,0,0,0,-3.1661,-3.1663,0,-3.1785,-3.1787,-3.1788,-3.1784,-3.1782,-3.1781,-3.1779,-3.1903,-3.1907,-3.1912,0,0,0,0,0,0,0,0,0,0,0,0,0,-3.1419,-3.1423,-3.1661,-3.1663,-3.1664,-3.1785,-3.1787,-3.1788,-3.1784,-3.1782,-3.178,-3.1778,-3.1901,-3.1907,-3.1913,0,0,0,0,0,0,0,0,0,0,0,0,0,-3.1531,-3.1424,-3.1661,-3.1677,-3.168,-3.1785,-3.1787,-3.1789,-3.1785,-3.1782,-3.178,-3.1777,-3.1899,-3.1906,-3.1913,-3.201,0,0,-3.1936,-3.1939,0,0,0,0,0,0,0,0,-3.1525,-3.154,-3.1673,-3.1676,-3.1679,-3.1767,-3.1746,-3.1863,-3.1786,-3.1745,-3.1779,-3.1776,-3.1859,-3.187,-3.1898,-3.2015,-3.2021,-3.1936,-3.1941,-3.1944,-3.1946,0,0,0,0,0,0,0,-3.1517,-3.1535,-3.171,-3.1675,-3.1679,-3.1677,-3.169,-3.1768,-3.1815,-3.1748,-3.1748,-3.1763,-3.186,-3.1891,-3.1901,-3.2022,-3.1936,-3.1943,-3.1947,-3.195,-3.2225,-3.2228,0,0,0,0,0,0,-3.1506,-3.1528,-3.1706,-3.1714,-3.1594,-3.1684,-3.1698,-3.1741,-3.1814,-3.1823,-3.1765,-3.1762,-3.188,-3.1893,-3.1906,-3.2023,-3.1944,-3.1951,-3.1955,-3.2222,-3.2225,-3.2229,0,0,0,0,0,0,-3.1501,-3.1522,-3.1701,-3.1621,-3.1644,-3.1691,-3.1739,-3.1745,-3.1776,-3.1827,-3.1835,-3.1789,-3.1879,-3.1895,-3.1984,-3.2027,-3.1954,-3.1961,-3.2218,-3.2223,-3.2227,-3.2259,0,0,0,0,0,0,-3.1494,-3.152,-3.1558,-3.1622,-3.1648,-3.1779,-3.1741,-3.1749,-3.1789,-3.1787,-3.1851,-3.1859,-3.1878,-3.1973,-3.1991,-3.2036,-3.1966,-3.2215,-3.222,-3.2226,-3.2254,-3.2264,-3.2272,0,0,0,0,0,-3.1485,-3.1561,-3.156,-3.1581,-3.1696,-3.1781,-3.1796,-3.1817,-3.1792,-3.183,-3.1863,-3.1857,-3.202,-3.1982,-3.2003,-3.205,-3.2212,-3.2219,-3.2225,-3.225,-3.2262,-3.2272,0,0,0,0,0,0,-3.15,-3.157,-3.1569,-3.1668,-3.1719,-3.178,-3.1829,-3.1829,-3.1887,-3.1882,-3.1905,-3.192,-3.2009,-3.2038,-3.1995,-3.2147,-3.2113,-3.2124,-3.2125,-3.2136,-3.2145,-3.2136,-3.1972,0,0,0,0,0,-3.1514,-3.1578,-3.1636,-3.1718,-3.1743,-3.1782,-3.1819,-3.1832,-3.1885,-3.1906,-3.1945,-3.1996,-3.2058,-3.2099,-3.2159,-3.2259,-3.2272,-3.2302,-3.231,-3.2318,-3.2327,-3.2382,-3.2395,-3.225,-3.225,-3.225,0,0,-3.1545,-3.1592,-3.163,-3.1722,-3.1762,-3.1827,-3.18,-3.1869,-3.1918,-3.1916,-3.2003,-3.2033,-3.2091,-3.2186,-3.2229,-3.2213,-3.237,-3.2326,-3.2331,-3.2337,-3.239,-3.2403,-3.2416,-3.2255,-3.2254,-3.2253,0,0,-3.1635,-3.1676,-3.1749,-3.1791,-3.1854,-3.1879,-3.1896,-3.1958,-3.1979,-3.2067,-3.2067,-3.2124,-3.2231,-3.2273,-3.2308,-3.2414,-3.2411,-3.2433,-3.248,-3.2533,-3.2545,-3.2555,-3.2593,-3.2606,-3.2442,-3.2442,-3.2442,0,-3.1665,-3.1764,-3.1786,-3.1857,-3.1897,-3.19,-3.1974,-3.2013,-3.2091,-3.2118,-3.21,-3.2235,-3.2274,-3.2379,-3.2405,-3.2433,-3.2454,-3.2426,-3.2541,-3.2552,-3.2562,-3.2598,-3.2612,-3.2445,-3.2444,-3.2444,-3.2444,0,-3.1798,-3.1866,-3.1918,-3.1995,-3.2041,-3.2112,-3.2145,-3.2189,-3.2197,-3.2224,-3.2313,-3.2361,-3.2431,-3.2457,-3.2465,-3.2563,-3.2551,-3.2537,-3.2502,-3.2578,-3.2612,-3.2626,-3.2448,-3.2447,-3.2446,-3.2446,0,0,-3.1899,-3.1989,-3.2007,-3.2043,-3.2112,-3.2165,-3.2237,-3.2307,-3.2344,-3.2398,-3.2458,-3.255,-3.2537,-3.2577,-3.259,-3.2637,-3.2718,-3.2617,-3.2619,-3.2634,-3.2829,-3.2839,-3.2855,-3.2717,-3.2719,-3.2722,-3.2824,0,-3.1996,-3.2124,-3.2147,-3.2259,-3.2323,-3.2327,-3.2389,-3.2438,-3.2465,-3.2522,-3.2552,-3.2617,-3.2595,-3.2619,-3.2666,-3.2699,-3.2758,-3.2692,-3.2772,-3.2775,-3.2758,-3.2873,-3.2884,-3.2979,-3.2838,-3.284,-3.2842,0,-3.2126,-3.2185,-3.2304,-3.2365,-3.2393,-3.2449,-3.2515,-3.257,-3.2625,-3.2642,-3.2687,-3.2695,-3.2769,-3.2731,-3.2833,-3.2788,-3.2822,-3.2843,-3.2847,-3.2856,-3.2813,-3.2884,-3.3009,-3.3024,-3.2863,-3.2862,-3.286,0,-3.2188,-3.2297,-3.2382,-3.2412,-3.2486,-3.2525,-3.2558,-3.2611,-3.2652,-3.271,-3.2736,-3.2801,-3.2837,-3.2887,-3.2912,-3.2882,-3.3012,-3.2976,-3.3027,-3.3027,-3.3054,-3.3052,-3.3186,-3.3076,-3.3076,-3.3076,-3.3076,0,-3.2293,-3.2366,-3.2411,-3.2463,-3.2545,-3.257,-3.2649,-3.2681,-3.2728,-3.2786,-3.2793,-3.2847,-3.2877,-3.2935,-3.2955,-3.3037,-3.3053,-3.3068,-3.3072,-3.3067,-3.3065,-3.309,-3.3084,-3.308,-3.3079,-3.3078,-3.3077,0,-3.2376,-3.2409,-3.2503,-3.2566,-3.2583,-3.264,-3.2694,-3.2744,-3.2772,-3.2845,-3.2864,-3.2906,-3.2976,-3.3006,-3.309,-3.3104,-3.3197,-3.3196,-3.3179,-3.318,-3.3229,-3.3224,-3.3384,-3.3406,-3.3281,-3.3282,-3.3283,0,-3.2441,-3.2497,-3.2567,-3.2607,-3.2641,-3.2705,-3.2747,-3.2774,-3.2817,-3.2886,-3.2928,-3.2998,-3.3055,-3.3165,-3.3203,-3.3268,-3.3269,-3.332,-3.3278,-3.3272,-3.3269,-3.3266,-3.3272,-3.3328,-3.3329,-3.333,-3.3331,0,-3.2553,-3.2567,-3.2628,-3.2696,-3.2746,-3.28,-3.2853,-3.2885,-3.292,-3.2968,-3.304,-3.3084,-3.3172,-3.324,-3.3308,-3.334,-3.3341,-3.3344,-3.3359,-3.3354,-3.3342,-3.3349,-3.3199,-3.334,-3.3339,-3.3338,-3.3338,-3.3337,-3.2629,-3.2679,-3.2736,-3.2804,-3.2847,-3.2896,-3.2948,-3.2982,-3.3042,-3.3116,-3.3128,-3.3205,-3.3259,-3.335,-3.3385,-3.3444,-3.3432,-3.3454,-3.3459,-3.3464,-3.3467,-3.3333,-3.3457,-3.3457,-3.3456,-3.3456,-3.3456,0,-3.2742,-3.2779,-3.2841,-3.2915,-3.2969,-3.2967,-3.3025,-3.3069,-3.3137,-3.3188,-3.3245,-3.3327,-3.3394,-3.3438,-3.3505,-3.3545,-3.3547,-3.3561,-3.3559,-3.3566,-3.3475,-3.3455,-3.3559,-3.3558,-3.3558,-3.3558,-3.3558,-3.3558,-3.2806,-3.2891,-3.2912,-3.3018,-3.3055,-3.3131,-3.3164,-3.3209,-3.3251,-3.3343,-3.3399,-3.3427,-3.3476,-3.3547,-3.3608,-3.3619,-3.3644,-3.3659,-3.3669,-3.3583,-3.3572,-3.3562,-3.3544,-3.3664,-3.3664,-3.3756,-3.3757,-3.3757]}]]